Location: Ulm
(48.3980°N, 9.9777°E)
Time: 12:30:46
(UTC+02:00)

ISS - Visible Passes

Search period start: 13 May 2021 00:00
Search period end: 23 May 2021 00:00
Orbit: 417 x 422 km, 51.6° (Epoch: 13 May)

Date Brightness Start Highest point End Pass type
(mag) Time Alt. Az. Time Alt. Az. Time Alt. Az.
13 May -0.9 00:32:07 10° ENE 00:32:07 10° ENE 00:32:11 10° ENE visible
13 May -2.7 02:05:02 38° NW 02:05:48 47° N 02:09:05 10° ENE visible
13 May -3.4 03:39:32 10° WNW 03:42:54 67° NNE 03:46:17 10° E visible
14 May -2.8 01:18:38 48° NNE 01:18:38 48° NNE 01:21:36 10° ENE visible
14 May -3.1 02:52:04 10° WNW 02:55:25 55° NNE 02:58:44 10° E visible
14 May -3.5 04:28:58 10° WNW 04:32:14 48° SSW 04:35:30 10° SE visible
14 May -3.4 22:50:50 10° SW 22:54:01 41° SSE 22:55:35 24° E visible
15 May -3.2 00:27:26 10° W 00:30:46 59° NNW 00:34:07 10° ENE visible
15 May -2.8 02:04:36 10° WNW 02:07:54 48° N 02:11:12 10° E visible
15 May -3.9 03:41:28 10° WNW 03:44:51 69° SSW 03:48:13 10° ESE visible
15 May -2.8 22:03:47 10° SSW 22:06:41 27° SE 22:09:36 10° E visible
15 May -3.6 23:39:55 10° WSW 23:43:17 73° NNW 23:46:41 10° ENE visible
16 May -2.7 01:17:06 10° WNW 01:20:23 46° N 01:23:40 10° ENE visible
16 May -3.8 02:54:01 10° WNW 02:57:25 86° NNE 03:00:48 10° ESE visible
16 May -2.5 04:31:16 10° W 04:33:55 22° SW 04:36:34 10° SSE visible
16 May -3.9 22:52:28 10° WSW 22:55:51 85° SSE 22:59:13 10° ENE visible
17 May -2.7 00:29:34 10° W 00:32:50 46° N 00:36:08 10° ENE visible
17 May -3.5 02:06:35 10° WNW 02:09:57 67° NNE 02:13:19 10° E visible
17 May -3.1 03:43:34 10° W 03:46:37 32° SW 03:49:40 10° SSE visible
17 May -3.8 22:05:06 10° SW 22:08:25 60° SSE 22:11:45 10° ENE visible
17 May -2.9 23:42:02 10° W 23:45:19 50° N 23:48:38 10° ENE visible
18 May -3.1 01:19:07 10° WNW 01:22:27 55° NNE 01:22:56 49° NE visible
18 May -3.1 22:54:28 10° W 22:57:48 58° NNW 23:01:10 10° ENE visible
19 May -2.8 00:31:38 10° WNW 00:34:56 49° N 00:36:31 26° ENE visible
19 May -1.6 02:08:30 10° WNW 02:09:26 17° WNW 02:09:26 17° WNW visible
19 May -3.5 22:06:57 10° WSW 22:10:19 73° NNW 22:13:41 10° ENE visible
19 May -2.7 23:44:08 10° WNW 23:47:24 46° N 23:50:21 12° ENE visible
20 May -2.7 01:21:03 10° WNW 01:23:17 38° WNW 01:23:17 38° WNW visible
20 May -2.7 22:56:35 10° W 22:59:52 46° N 23:03:09 10° ENE visible
21 May -3.5 00:33:36 10° WNW 00:36:58 67° NNE 00:37:12 64° NE visible
21 May -2.8 22:09:02 10° W 22:12:20 50° N 22:15:38 10° ENE visible
21 May -3.1 23:46:08 10° WNW 23:49:28 55° NNE 23:51:10 25° E visible
22 May -1.6 01:23:01 10° WNW 01:24:06 18° W 01:24:06 18° W visible
22 May -2.8 22:58:39 10° WNW 23:01:56 49° N 23:05:10 10° E visible
